User: anonymous   Login
Location: Unspecified
(0.0000°N, 0.0000°E)
Time: 01:48:09
(UTC+01:00)
Language:

GPS 2-05 Rocket1 - Orbit

View from above orbital plane
View from above orbital plane
View from above satellite
View from above satellite

Ground track
Ground track

The orbit data is extracted from the following two-line orbital elements,

1 20362U 89097B   17015.84994267 +.00004968 +00000-0 +82449-4 0  9997
2 20362 035.6078 146.2009 0059270 348.4959 149.8270 15.49593970476607
Epoch (UTC): 15 January 2017 20:23:55
Eccentricity: 0.0059270
inclination: 35.6078°
perigee height: 377 km
apogee height: 458 km
right ascension of ascending node: 146.2009°
argument of perigee: 348.4959°
revolutions per day: 15.49593970
mean anomaly at epoch: 149.8270°
orbit number at epoch: 47660

The dashed part of the orbit path shows where the satellite is in the earth's shadow,  

DLR